Погода в Верхней Пеше

Россия / Ненецкий автономный округ     66°36′34″N   47°57′11″E
темп.,
°C
ветер,
м/с
пор.,
м/с
влажн.,
%
обл.,
%
осадки,
мм/ч
давл.,
гПа
погр.,
м
15 августа, пн
пн1500:00+10зюз5109433 0.4 1017213
03:00+9зсз369487 0.4 1018136
06:00+10ссз358865 0.0 1019203
09:00+14сз356269 0.0 1020723
12:00+16сз79485 0.0 10221324
15:00+16сз68465 0.0 10231359
18:00+14сз57555 0.0 1023811
21:00+8ссз33845 0.0 102426
16 августа, вт
вт1600:00+6ссз22905 0.0 102512
03:00+5всв11905 0.0 102610
06:00+9вюв227713 0.0 1026133
09:00+13ююв11555 0.0 1026523
12:00+17юв114438 0.0 1025934
15:00+18ююз1240100 0.0 10251149
18:00+15ююз1155100 0.0 102412
21:00+14юв3454100 0.0 102454
17 августа, ср
ср1700:00+12ююв4465100 0.0 102447
03:00+11ююв3468100 0.0 102360
06:00+13ю3669100 0.0 1023146
09:00+19ю456499 0.0 1022440
12:00+23юз455779 0.0 1021906
15:00+25з345084 0.0 10201653
18:00+25з116341 0.0 102015
21:00+18ююв22786 0.0 102013
18 августа, чт
чт1800:00+18ююв3480100 0.0 102039
03:00+19ююз3471100 0.0 102168
06:00+20ююз377083 0.0 1021156
09:00+24ююз57545 0.0 1021432
12:00+27юз67445 0.0 10211456
15:00+28юз57404 0.0 10202101
18:00+26юз465153 0.0 1020125
21:00+20юз467468 0.7 102190
19 августа, пт
пт1900:00+17зсз118780 0.7 102111
03:00+18юз2389100 1.8 102152
06:00+17зюз3494100 2.0 1022168
09:00+20з3583100 2.3 1022558
12:00+22з4672100 0.0 10221008
15:00+22зсз5672100 0.2 1022931
18:00+18ссз458497 0.1 1023305
21:00+15ссз349097 0.2 1024157